User: anonymous   Login
Location: Newark
(44.6028°N, 124.0883°W)
Time: 07:33:31
(UTC+00:00)
Language:

Oscar 11 - Orbit

View from above orbital plane
View from above orbital plane
View from above satellite
View from above satellite

Ground track
Ground track

The orbit data is extracted from the following two-line orbital elements,

1 14781U 84021B   19349.77098195 +.00000073 +00000-0 +15028-4 0  9998
2 14781 097.5991 005.8520 0009996 088.8861 271.3498 14.83127755904454
Epoch (UTC): 15 December 2019 18:30:12
Eccentricity: 0.0009996
inclination: 97.5991°
perigee height: 612 km
apogee height: 626 km
right ascension of ascending node: 5.8520°
argument of perigee: 88.8861°
revolutions per day: 14.83127755
mean anomaly at epoch: 271.3498°
orbit number at epoch: 90445

The dashed part of the orbit path shows where the satellite is in the earth's shadow,  

DLR